Location: Arroyo de Fuente Vieja
(40.4902°N, 4.1175°W)
Time: 23:02:48
(UTC+00:00)

Cosmos 2227 Rocket - Pass Details

Date: 18 April 2024
Orbit: 837 x 846 km, 71.0° (Epoch: 23 May)

Event Time Altitude Azimuth Distance (km) Brightness Sun altitude
Rises 21:46:39 0° 338° (NNW) 3,414 6.4 -27.9°
Reaches altitude 10° 21:49:08 10° 340° (NNW) 2,475 5.5 -28.2°
Enters shadow 21:54:21 69° 28° (NNE) 905 2.3 -28.8°
